Regional Weather Roundup
Issued by NWS

Home | Current Version | Previous Version | Graphics & Text | Print | Product List | Glossary On
Versions: 1 2 3 4 5 6 7 8 9 10 11 12 13 14 15 16 17 18 19 20 21 22 23 24 25 26 27 28 29 30 31 32 33 34 35 36 37 38 39 40 41 42 43 44 45 46 47 48 49 50
000
ASUS43 KOAX 241902
RWRNE

WEATHER ROUNDUP FOR NEBRASKA
NATIONAL WEATHER SERVICE OMAHA NE
100 PM CST WED DEC 24 2014

NOTES: SATELLITE DATA IS BEING USED TO AUGMENT CLOUD COVER ABOVE
       12000 FEET.
       "FAIR" INDICATES FEW OR NO CLOUDS BELOW 12,000 FEET WITH NO
       SIGNIFICANT WEATHER AND/OR OBSTRUCTIONS TO VISIBILITY.

  * THESE STATIONS DO NOT REPORT WEATHER SUCH AS RAIN...SNOW OR FOG.

NEZ001>004-019>022-054>056-242000-
NEBRASKA PANHANDLE

CITY           SKY/WX    TMP DP  RH WIND       PRES   REMARKS
SCOTTSBLUFF    SUNNY     31  22  69 E5        29.69F WCI  26
ALLIANCE       SUNNY     39  21  48 W15       29.66F WCI  31
CHADRON        CLOUDY    35  25  66 CALM      29.67F
SIDNEY         SUNNY     34  21  59 SW14      29.72F WCI  25
$$

NEZ057>060-069>072-079>082-242000-
SOUTHWEST NEBRASKA

CITY           SKY/WX    TMP DP  RH WIND       PRES   REMARKS
NORTH PLATTE   SUNNY     40  18  41 W10       29.76F WCI  33
IMPERIAL       SUNNY     37  18  46 SW13      29.76F WCI  29
LEXINGTON      SUNNY     37  23  57 W8        29.79F WCI  31
MCCOOK         SUNNY     37  18  46 SW7       29.80F WCI  32
$$

NEZ005>010-023>029-035>040-094-242000-
NORTH CENTRAL NEBRASKA

CITY           SKY/WX    TMP DP  RH WIND       PRES   REMARKS
VALENTINE      SUNNY     34  19  54 SW12      29.66F WCI  25
AINSWORTH      SUNNY     32  22  66 S9        29.70F WCI  24
BROKEN BOW     SUNNY     34  22  61 S6        29.75F WCI  29
O`NEILL        SUNNY     29  24  83 S7        29.74F WCI  22
ORD            SUNNY     33  21  61 W7        29.76F WCI  27
$$

NEZ041-046>049-061>064-073>077-083>087-242000-
SOUTH CENTRAL NEBRASKA

CITY           SKY/WX    TMP DP  RH WIND       PRES   REMARKS
GRAND ISLAND   SUNNY     36  23  59 W9        29.81F WCI  29
HASTINGS       SUNNY     36  23  59 W12       29.81F WCI  28
KEARNEY *      SUNNY     36  19  51 W10       29.81F WCI  28
$$

NEZ011>018-030>034-042>045-242000-
NORTHEAST NEBRASKA

CITY           SKY/WX    TMP DP  RH WIND       PRES   REMARKS
NORFOLK        CLOUDY    28  24  85 NW10      29.78F WCI  19
BLAIR          CLOUDY    31  28  88 W10       29.80F WCI  22
COLUMBUS *     CLOUDY    28  21  74 NW6       29.81F WCI  22
TEKAMAH        CLOUDY    30  27  88 W13       29.81F WCI  20
WAYNE          CLOUDY    27  25  90 NW7       29.79F WCI  20
$$

NEZ050>053-065>068-078-088>093-242000-
SOUTHEAST NEBRASKA

CITY           SKY/WX    TMP DP  RH WIND       PRES   REMARKS
LINCOLN        CLOUDY    30  25  81 W10       29.84F WCI  21
OMAHA EPPLEY   CLOUDY    31  28  89 NW12      29.83F WCI  22
FALLS CITY     CLOUDY    34  29  82 W14       29.83F WCI  25
NEBRASKA CITY  CLOUDY    32  31  98 NW10G16   29.82F WCI  24
$$

NEZ044-045-051>053-067-242000-
OMAHA AREA

CITY           SKY/WX    TMP DP  RH WIND       PRES   REMARKS
OMAHA EPPLEY   CLOUDY    31  28  89 NW12      29.83F WCI  22
BLAIR          CLOUDY    31  28  88 W10       29.80F WCI  22
WAHOO          CLOUDY    30  27  86 W12       29.81F WCI  21
$$


USA.gov is the U.S. government's official web portal to all federal, state and local government web resources and services.